Find Starlink 11087

NORAD ID: 59421 Int'l Des: 2024-065 Owner: SPXS Country: US Constellation: starlink operational
LEOCIRCULAR

リアルタイム位置

3D地球を読み込み中...

Starlink 11087について

説明を読み込み中...

次回通過

Passes for default location (London). Set your location on the main map for personalized predictions.

高度履歴

Loading altitude history...

軌道要素

1 59421U 24065A 26126.51674188 -.00003387 00000-0 -23122-4 0 9992
2 59421 53.1562 168.9517 0001759 96.7586 263.3632 15.69685594120595
Epoch: May 6, 2026 • Age: 16 hours

現在のステータス

高度 364.9 km
速度 7.70 km/s
衛星直下点 51.92°N, 47.56°W
打ち上げ日 Apr 7, 2024
運用期間 2 years
タイプ internet

技術仕様

分類 Payload
質量 960.00 kg
乾燥質量 910.00 kg
総質量 960.00 kg
長さ 0.30 m
直径 4.10 m
スパン 29.00 m
形状 Box + pan
製造者 SPXS
バスタイプ Starlink V2MD
フェーズステータス In Orbit
所有者/国 SPXS/US

Most Searched